Location: Asarope
(8.2500°N, 4.4833°E)
Time: 00:28:15
(UTC+00:00)

ADEOS - Pass Details

Date: 07 June 2020
Orbit: 793 x 794 km, 98.9° (Epoch: 13 July)

Event Time Altitude Azimuth Distance (km) Brightness Sun altitude
Rises 03:10:17 0° 23° (NNE) 3,280 7.5 -30.1°
Reaches altitude 10° 03:12:41 10° 29° (NNE) 2,352 6.7 -29.6°
Maximum altitude 03:17:40 47° 102° (ESE) 1,037 4.3 -28.6°
Enters shadow 03:18:57 39° 142° (SE) 1,173 4.4 -28.3°
